Starlink 5853

operational
NORAD ID: 56881 Int'l Des: 2023-083 Owner: SPXS Country: US Constellation: starlink
LEOCIRCULAR

关于 Starlink 5853

正在加载描述...

实时位置

正在加载3D地球...

即将过境

高度历史

Altitude vs Time

uPlot chart will show altitude changes over time

两行轨道根数

1 56881U 23083F 25301.11174666 .00000394 00000-0 44241-4 0 9992
2 56881 43.0034 82.4784 0001234 273.2665 86.8036 15.02536497131725
Epoch: Oct 28, 2025 • Age: 22 hours

当前状态

高度 558.8 km
速度 7.59 km/s
星下点 20.25°N, 45.64°E
发射日期 Jun 12, 2023
运行时间 2.3 years
类型 internet

技术详情

分类 Payload
质量 305.00 kg
干质量 290.00 kg
总质量 305.00 kg
长度 0.20 m
直径 2.80 m
跨度 9.00 m
形状 Box + pan
制造商 SPXS
平台类型 Starlink
阶段状态 In Orbit
所有者/国家 SPXS/US

大型星座

Loading constellations...